Location: Casteau
(50.5142°N, 4.0161°E)
Time: 08:48:26
(UTC+00:00)

Cosmos 1300 Rocket - Pass Details

Date: 18 September 2020
Orbit: 601 x 627 km, 82.5° (Epoch: 27 October)

Event Time Altitude Azimuth Distance (km) Brightness Sun altitude
Rises 19:54:29 0° 203° (SSW) 2,880 6.9 -19.7°
Reaches altitude 10° 19:56:45 10° 209° (SSW) 1,983 6.1 -20.0°
Maximum altitude 20:01:01 49° 285° (WNW) 804 4.5 -20.6°
Drops below altitude 10° 20:05:21 10° 1° (N) 2,011 6.5 -21.2°
Sets 20:07:40 0° 7° (N) 2,925 7.3 -21.5°
